Location: Arnold
(38.6403°N, 100.0462°W)
Time: 04:32:41
(UTC-05:00)

Hubble Space Telescope - Visible Passes

Search period start: 25 March 2019 00:00
Search period end: 04 April 2019 00:00
Orbit: 537 x 540 km, 28.5° (Epoch: 24 March)

Date Brightness Start Highest point End Pass type
(mag) Time Alt. Az. Time Alt. Az. Time Alt. Az.
25 Mar 2.7 21:26:52 10° SSW 21:29:10 16° S 21:29:10 16° S visible
26 Mar 2.5 21:16:06 10° SW 21:18:54 18° S 21:19:27 17° SSE visible
27 Mar 2.5 21:05:23 10° SW 21:08:19 19° S 21:09:41 16° SSE visible
28 Mar 2.5 20:54:44 10° SW 20:57:44 19° S 20:59:53 14° SE visible
29 Mar 2.6 20:44:07 10° SW 20:47:09 20° S 20:50:02 11° SE visible
29 Mar 3.6 22:25:18 10° SW 22:25:23 10° SW 22:25:23 10° SW visible
30 Mar 2.6 20:33:33 10° SW 20:36:34 20° S 20:39:35 10° SE visible
30 Mar 3.4 22:15:04 10° SW 22:15:32 11° SW 22:15:32 11° SW visible
31 Mar 2.7 20:23:01 10° SW 20:25:59 19° S 20:28:57 10° SE visible
31 Mar 3.3 22:05:04 10° SW 22:05:41 11° SSW 22:05:41 11° SSW visible
